Location: Strawberry
(45.6646°N, 111.9596°W)
Time: 11:37:08
(UTC+00:00)

Courier 1B Rocket - All Passes

Search period start: 05 October 2022 00:00
Search period end: 15 October 2022 00:00
Orbit: 920 x 1202 km, 28.2° (Epoch: 04 October)

Date Brightness Start Highest point End Pass type
(mag) Time Alt. Az. Time Alt. Az. Time Alt. Az.
05 Oct - 01:29:42 10° S 01:32:19 12° SSE 01:34:53 10° SE visible
05 Oct - 03:20:44 10° SW 03:24:33 16° S 03:28:16 10° SE visible
05 Oct - 05:14:24 10° SW 05:16:42 12° SSW 05:19:00 10° S visible
06 Oct - 00:30:47 10° SSE 00:31:36 10° SSE 00:32:24 10° SSE daylight
06 Oct - 02:19:56 10° SSW 02:23:50 16° S 02:27:37 10° SE visible
06 Oct - 04:12:44 10° SW 04:16:03 14° S 04:19:17 10° SSE visible
07 Oct - 01:19:21 10° SSW 01:23:06 15° S 01:26:44 10° SE visible
07 Oct - 03:11:29 10° SW 03:15:22 16° S 03:19:09 10° SSE visible
08 Oct - 00:19:04 10° SSW 00:22:20 14° SSE 00:25:32 10° SE daylight
08 Oct - 02:10:25 10° SW 02:14:39 17° S 02:18:44 10° SE visible
08 Oct - 04:04:12 10° SW 04:06:51 13° SSW 04:09:27 10° S visible
08 Oct - 23:19:25 10° S 23:21:35 11° SSE 23:23:42 10° SE daylight
09 Oct - 01:09:31 10° SW 01:13:53 17° S 01:18:05 10° SE daylight
09 Oct - 03:02:29 10° SW 03:06:10 15° S 03:09:45 10° SSE visible
10 Oct - 00:08:50 10° SSW 00:13:06 16° S 00:17:13 10° SE daylight
10 Oct - 02:01:07 10° SW 02:05:26 17° S 02:09:35 10° SSE visible
10 Oct - 03:56:52 10° SSW 03:57:35 10° SSW 03:58:18 10° SSW visible
10 Oct - 23:08:26 10° SSW 23:12:18 15° SSE 23:16:02 10° SE daylight
11 Oct - 00:59:59 10° SW 01:04:40 18° S 01:09:10 10° SE daylight
11 Oct - 02:53:48 10° SW 02:56:55 13° SSW 02:59:58 10° SSE visible
11 Oct - 22:08:34 10° S 22:11:28 12° SSE 22:14:21 10° SE daylight
11 Oct - 23:59:02 10° SW 00:03:50 18° S 00:08:29 10° SE daylight
12 Oct - 01:52:04 10° SW 01:56:12 16° SSW 02:00:11 10° SSE visible
12 Oct - 22:58:18 10° SSW 23:03:00 18° S 23:07:33 10° SE daylight
13 Oct - 00:50:41 10° SW 00:55:25 18° S 00:59:59 10° SE daylight
13 Oct - 02:45:51 10° SW 02:47:37 11° SSW 02:49:22 10° S visible
13 Oct - 21:57:52 10° SSW 22:02:09 16° SSE 22:06:20 10° SE daylight
13 Oct - 23:49:31 10° SW 23:54:35 19° S 23:59:28 10° SE daylight
14 Oct - 01:43:18 10° SW 01:46:55 14° SSW 01:50:25 10° SSE visible
14 Oct - 20:57:55 10° S 21:01:18 13° SSE 21:04:38 10° SE daylight
14 Oct - 22:48:33 10° SW 22:53:43 20° S 22:58:43 10° SE daylight
